Hourly Weather Gojan i Eperm

Today, 12 May, Wednesday

Time Temperature Precipitation Wind Pressure Humidity
00:00 +12°C° 0 mm 2 mps 686 mmHg 88%
01:00 +12°C° 0 mm 2 mps 686 mmHg 89%
02:00 +12°C° 0 mm 2 mps 685 mmHg 86%
03:00 +12°C° 0 mm 1 mps 685 mmHg 82%
04:00 +12°C° 0 mm 1 mps 684 mmHg 79%
05:00 +13°C° 0 mm 1 mps 685 mmHg 74%
06:00 +14°C° 0 mm 1 mps 685 mmHg 69%
07:00 +15°C° 0 mm 2 mps 685 mmHg 65%
08:00 +15°C° 0 mm 2 mps 685 mmHg 65%
09:00 +16°C° 0 mm 2 mps 685 mmHg 65%
10:00 +16°C° 0 mm 3 mps 685 mmHg 64%
11:00 +16°C° 0.5 mm 3 mps 685 mmHg 67%
12:00 +16°C° 0.5 mm 3 mps 685 mmHg 70%
13:00 +16°C° 0.5 mm 3 mps 685 mmHg 73%
14:00 +16°C° 0.2 mm 3 mps 685 mmHg 69%
15:00 +16°C° 0.2 mm 3 mps 685 mmHg 65%
16:00 +16°C° 0.2 mm 3 mps 685 mmHg 60%
17:00 +14°C° 0 mm 3 mps 684 mmHg 68%
18:00 +13°C° 0 mm 2 mps 684 mmHg 76%
19:00 +10°C° 0 mm 2 mps 684 mmHg 84%
20:00 +10°C° 0 mm 2 mps 684 mmHg 85%
21:00 +9°C° 0 mm 2 mps 684 mmHg 87%
22:00 +9°C° 0 mm 2 mps 684 mmHg 88%
23:00 +8°C° 0 mm 2 mps 684 mmHg 87%

Tomorrow, 13 May, Thursday

Time Temperature Precipitation Wind Pressure Humidity
00:00 +8°C° 0 mm 2 mps 684 mmHg 86%
01:00 +8°C° 0 mm 2 mps 684 mmHg 85%
02:00 +8°C° 0 mm 2 mps 684 mmHg 83%
03:00 +8°C° 0 mm 2 mps 683 mmHg 81%
04:00 +8°C° 0 mm 2 mps 683 mmHg 80%
05:00 +9°C° 0 mm 2 mps 683 mmHg 77%
06:00 +10°C° 0 mm 2 mps 684 mmHg 74%
07:00 +12°C° 0 mm 2 mps 684 mmHg 71%
08:00 +12°C° 0.3 mm 2 mps 684 mmHg 75%
09:00 +12°C° 0.3 mm 2 mps 684 mmHg 78%
10:00 +11°C° 0.3 mm 3 mps 684 mmHg 82%
11:00 +11°C° 0.4 mm 3 mps 684 mmHg 81%
12:00 +10°C° 0.4 mm 3 mps 684 mmHg 81%
13:00 +10°C° 0.4 mm 3 mps 684 mmHg 80%
14:00 +11°C° 0.2 mm 3 mps 684 mmHg 79%
15:00 +11°C° 0.2 mm 3 mps 684 mmHg 78%
16:00 +11°C° 0.2 mm 3 mps 684 mmHg 77%
17:00 +10°C° 0.3 mm 3 mps 684 mmHg 81%
18:00 +10°C° 0.3 mm 2 mps 684 mmHg 85%
19:00 +10°C° 0.3 mm 1 mps 684 mmHg 89%
20:00 +10°C° 0.5 mm 1 mps 684 mmHg 90%
21:00 +10°C° 0.5 mm 1 mps 684 mmHg 92%
22:00 +9°C° 0.5 mm 1 mps 684 mmHg 93%
23:00 +9°C° 0.8 mm 1 mps 684 mmHg 93%

Day after tomorrow, 14 May, Friday

Time Temperature Precipitation Wind Pressure Humidity
00:00 +10°C° 0.8 mm 1 mps 684 mmHg 93%
01:00 +10°C° 0.8 mm 1 mps 684 mmHg 93%
02:00 +9°C° 0.4 mm 1 mps 684 mmHg 93%
03:00 +8°C° 0.4 mm 2 mps 684 mmHg 92%
04:00 +8°C° 0.4 mm 2 mps 684 mmHg 92%
05:00 +9°C° 0.4 mm 2 mps 685 mmHg 88%
06:00 +10°C° 0.4 mm 2 mps 685 mmHg 84%
07:00 +12°C° 0.4 mm 2 mps 686 mmHg 80%
08:00 +12°C° 0.1 mm 3 mps 686 mmHg 73%
09:00 +13°C° 0.1 mm 3 mps 686 mmHg 66%
10:00 +14°C° 0.1 mm 3 mps 687 mmHg 59%
11:00 +14°C° 0.2 mm 4 mps 687 mmHg 59%
12:00 +14°C° 0.2 mm 4 mps 687 mmHg 59%
13:00 +14°C° 0.2 mm 5 mps 687 mmHg 60%
14:00 +14°C° 0.1 mm 4 mps 687 mmHg 59%
15:00 +14°C° 0.1 mm 4 mps 687 mmHg 58%
16:00 +14°C° 0.1 mm 3 mps 687 mmHg 58%
17:00 +12°C° 0 mm 3 mps 687 mmHg 65%
18:00 +12°C° 0 mm 2 mps 686 mmHg 72%
19:00 +10°C° 0 mm 1 mps 686 mmHg 79%
20:00 +10°C° 0.1 mm 1 mps 686 mmHg 81%
21:00 +9°C° 0.1 mm 1 mps 686 mmHg 83%
22:00 +9°C° 0.1 mm 1 mps 686 mmHg 85%
23:00 +9°C° 0.2 mm 1 mps 686 mmHg 84%

15 May, Saturday

Time Temperature Precipitation Wind Pressure Humidity
00:00 +9°C° 0.2 mm 1 mps 686 mmHg 84%
01:00 +9°C° 0.2 mm 1 mps 685 mmHg 83%
02:00 +9°C° 0.9 mm 1 mps 685 mmHg 85%
03:00 +9°C° 0.9 mm 1 mps 685 mmHg 87%
04:00 +9°C° 0.9 mm 1 mps 684 mmHg 90%
05:00 +10°C° 0.8 mm 1 mps 684 mmHg 90%
06:00 +10°C° 0.8 mm 1 mps 684 mmHg 89%
07:00 +10°C° 0.8 mm 1 mps 684 mmHg 89%
08:00 +10°C° 1.7 mm 1 mps 684 mmHg 89%
09:00 +10°C° 1.7 mm 1 mps 684 mmHg 89%
10:00 +9°C° 1.7 mm 2 mps 684 mmHg 89%
11:00 +9°C° 1.5 mm 2 mps 684 mmHg 88%
12:00 +10°C° 1.5 mm 2 mps 684 mmHg 86%
13:00 +10°C° 1.5 mm 2 mps 684 mmHg 85%
14:00 +10°C° 0.6 mm 2 mps 684 mmHg 83%
15:00 +10°C° 0.6 mm 3 mps 684 mmHg 80%
16:00 +11°C° 0.6 mm 3 mps 684 mmHg 78%
17:00 +10°C° 0.2 mm 2 mps 684 mmHg 83%
18:00 +9°C° 0.2 mm 2 mps 684 mmHg 88%
19:00 +8°C° 0.2 mm 2 mps 684 mmHg 92%
20:00 +8°C° 0.1 mm 2 mps 684 mmHg 93%
21:00 +9°C° 0.1 mm 1 mps 684 mmHg 93%
22:00 +9°C° 0.1 mm 1 mps 684 mmHg 94%
23:00 +9°C° 0 mm 1 mps 684 mmHg 94%

16 May, Sunday

Time Temperature Precipitation Wind Pressure Humidity
00:00 +9°C° 0 mm 1 mps 684 mmHg 94%
01:00 +9°C° 0 mm 1 mps 684 mmHg 94%
02:00 +8°C° 0 mm 1 mps 684 mmHg 94%
03:00 +8°C° 0 mm 1 mps 684 mmHg 94%
04:00 +8°C° 0 mm 1 mps 684 mmHg 95%
05:00 +9°C° 0 mm 1 mps 684 mmHg 91%
06:00 +10°C° 0 mm 1 mps 684 mmHg 88%
07:00 +11°C° 0 mm 1 mps 685 mmHg 85%
08:00 +12°C° 0.1 mm 1 mps 685 mmHg 79%
09:00 +13°C° 0.1 mm 2 mps 685 mmHg 74%
10:00 +14°C° 0.1 mm 2 mps 685 mmHg 68%
11:00 +14°C° 0.1 mm 2 mps 685 mmHg 68%
12:00 +14°C° 0.1 mm 3 mps 685 mmHg 68%
13:00 +14°C° 0.1 mm 3 mps 685 mmHg 67%
14:00 +14°C° 0 mm 3 mps 685 mmHg 68%
15:00 +13°C° 0 mm 3 mps 685 mmHg 68%
16:00 +13°C° 0 mm 3 mps 685 mmHg 68%
17:00 +12°C° 0 mm 3 mps 685 mmHg 76%
18:00 +10°C° 0 mm 2 mps 685 mmHg 83%
19:00 +9°C° 0 mm 2 mps 685 mmHg 90%
20:00 +8°C° 0 mm 2 mps 685 mmHg 91%
21:00 +8°C° 0 mm 2 mps 686 mmHg 91%
22:00 +8°C° 0 mm 1 mps 686 mmHg 91%
23:00 +8°C° 0 mm 1 mps 686 mmHg 91%

17 May, Monday

Time Temperature Precipitation Wind Pressure Humidity
00:00 +8°C° 0 mm 1 mps 686 mmHg 90%
01:00 +8°C° 0 mm 1 mps 686 mmHg 89%
02:00 +8°C° 0 mm 1 mps 686 mmHg 89%
03:00 +8°C° 0 mm 1 mps 686 mmHg 88%
04:00 +8°C° 0 mm 1 mps 686 mmHg 88%
05:00 +9°C° 0 mm 1 mps 686 mmHg 83%
06:00 +11°C° 0 mm 1 mps 687 mmHg 79%
07:00 +12°C° 0 mm 1 mps 687 mmHg 75%
08:00 +14°C° 0 mm 1 mps 687 mmHg 70%
09:00 +15°C° 0 mm 1 mps 687 mmHg 66%
10:00 +16°C° 0 mm 2 mps 688 mmHg 61%
11:00 +17°C° 0 mm 2 mps 688 mmHg 60%
12:00 +18°C° 0 mm 2 mps 688 mmHg 58%
13:00 +18°C° 0 mm 3 mps 687 mmHg 57%
14:00 +18°C° 0 mm 3 mps 687 mmHg 59%
15:00 +18°C° 0 mm 3 mps 687 mmHg 61%
16:00 +17°C° 0 mm 3 mps 687 mmHg 62%
17:00 +16°C° 0 mm 2 mps 687 mmHg 69%
18:00 +14°C° 0 mm 2 mps 687 mmHg 76%
19:00 +13°C° 0 mm 1 mps 687 mmHg 83%
20:00 +13°C° 0 mm 1 mps 687 mmHg 80%
21:00 +13°C° 0 mm 2 mps 687 mmHg 78%
22:00 +13°C° 0 mm 2 mps 687 mmHg 76%
23:00 +13°C° 0 mm 1 mps 687 mmHg 75%
Show more